Location: Cahas Mountain Overlook
(37.0833°N, 80.1000°W)
Time: 06:38:31
(UTC-04:00)

Explorer 7 - Pass Details

Date: 12 February 2026
Orbit: 430 x 540 km, 50.2° (Epoch: 14 March)

Event Time Altitude Azimuth Distance (km) Brightness Sun altitude
Rises 15:23:14 0° 182° (S) 2,407 10.7 25.8°
Reaches altitude 10° 15:26:36 10° 146° (SSE) 1,568 9.3 25.3°
Maximum altitude 15:27:45 11° 127° (SE) 1,501 9.0 25.1°
Drops below altitude 10° 15:28:55 10° 108° (ESE) 1,590 9.0 24.9°
Sets 15:32:25 0° 73° (ENE) 2,504 9.7 24.4°
